Location: Brotuna
(46.2000°N, 22.6000°E)
Time: 03:39:58
(UTC+00:00)

RESURS DK-1 - Pass Details

Date: 09 April 2020
Orbit: 557 x 561 km, 69.9° (Epoch: 06 June)

Event Time Altitude Azimuth Distance (km) Brightness Sun altitude
Rises 19:07:51 0° 338° (NNW) 2,760 6.9 -19.5°
Reaches altitude 10° 19:10:14 10° 347° (NNW) 1,859 5.7 -19.8°
Maximum altitude 19:14:03 35° 54° (NE) 922 3.3 -20.3°
Enters shadow 19:14:17 35° 62° (ENE) 927 3.2 -20.4°
